Location: Anumalkud?ru
(16.4847°N, 80.6636°E)
Time: 09:30:47
(UTC+00:00)

CARTOSAT-1 - Pass Details

Date: 11 April 2026
Orbit: 594 x 596 km, 97.5° (Epoch: 12 May)

Event Time Altitude Azimuth Distance (km) Brightness Sun altitude
Rises 13:38:55 0° 172° (S) 2,823 6.7 -11.9°
Reaches altitude 10° 13:41:04 10° 173° (S) 1,923 5.9 -12.4°
Maximum altitude 13:45:14 75° 258° (WSW) 617 3.6 -13.4°
Drops below altitude 10° 13:49:25 10° 345° (NNW) 1,928 6.5 -14.3°
Sets 13:51:36 0° 347° (NNW) 2,830 7.3 -14.8°
